Location: Limerick
(52.6650°N, 8.6230°W)
Time: 04:50:53
(UTC+00:00)

ISS - Pass Details

Date: 11 December 2019
Orbit: 411 x 421 km, 51.6° (Epoch: 15 December)

Event Time Altitude Azimuth Distance (km) Brightness Sun altitude
Rises 18:09:00 0° 275° (W) 2,358 1.3 -15.4°
Reaches altitude 10° 18:12:37 10° 235° (SW) 1,493 0.2 -15.9°
Maximum altitude 18:13:20 11° 222° (SW) 1,460 -0.1 -16.0°
Drops below altitude 10° 18:14:04 10° 209° (SSW) 1,492 -0.3 -16.1°
Sets 18:17:41 0° 169° (SSE) 2,352 0.1 -16.6°
